カタログに戻る

STARLINK-36681

運用中通信VLEO
NORAD 68720·PAYLOAD·🇺🇸 United States

打ち上げ Apr 14, 2026 から Cape Canaveral Space Force Station

Loading…

次のパス (今後24時間)

TLE

最新Source: CelesTrak SupGP

元期: Sep 15, 2026, 03:27 UTC

1 68720C 26081X   26258.14423611 -.00057793  00000+0 -17075-2 0  2587
2 68720  53.1581 230.5451 0001427  86.0232 113.3877 15.34420370    13

AllMySatでSTARLINK-36681をリアルタイム追跡

Download on the App Store